Regional Weather Roundup
Issued by NWS

Home | Current Version | Previous Version | Text Only | Print | Product List | Glossary Off
Versions: 1 2 3 4 5 6 7 8 9 10 11 12 13 14 15 16 17 18 19 20 21 22 23 24 25 26 27 28 29 30 31 32 33 34 35 36 37 38 39 40 41 42 43 44 45 46 47 48 49 50

098
ASUS44 KLIX 010610
RWRLA
LOUISIANA WEATHER ROUNDUP
NATIONAL WEATHER SERVICE NEW ORLEANS LA
100 AM CDT MON SEP 01 2014

NOTE: "FAIR" INDICATES FEW OR NO CLOUDS BELOW 12,000 FEET WITH NO
      SIGNIFICANT WEATHER AND/OR OBSTRUCTIONS TO VISIBILITY.
      SKY/WX - SKY CONDITION AND SIGNIFICANT WEATHER.
      TMP - AIR TEMPERATURE.    DP   - DEWPOINT TEMPERATURE.
      RH  - RELATIVE HUMIDITY.  PRES - PRESSURE.
      HX  - HEAT INDEX.         WCI  - WIND CHILL INDEX.

*  THESE STATIONS ARE NOT NWS OR FAA STATIONS AND ARE NOT UNDER
   NWS QUALITY CONTROL.

LAZ040-048-061>063-065-066-069-010700-
SOUTHEAST LOUISIANA

CITY           SKY/WX    TMP DP  RH WIND       PRES   REMARKS
N.O. AUDUBON     N/A     84  79  84 MISG        N/A  HX  95
6HR MIN TEMP:  84; 6HR MAX TEMP:  88;

N.O. INTL ARPT MOCLDY    82  76  81 SE9       30.02F
6HR MIN TEMP:  82; 6HR MAX TEMP:  86;

N.O. LAKEFRONT FAIR      81  77  88 SE8       30.04F
6HR MIN TEMP:  81; 6HR MAX TEMP:  86;

N.O. DOWNTOWN* FAIR      82  73  74 SE5       30.04S
6HR MIN TEMP:  82; 6HR MAX TEMP:  88;

SLIDELL        FAIR      80  76  87 SE5       30.03F
6HR MIN TEMP:  80; 6HR MAX TEMP:  86;

BATON ROUGE    FAIR      78  75  90 E5        30.02F
6HR MIN TEMP:  77; 6HR MAX TEMP:  87;

BOOTHVILLE     FAIR      83  78  85 SE6       30.04F
6HR MIN TEMP:  83; 6HR MAX TEMP:  86;

BELLE CHASSE   FAIR      83  75  77 SE7       30.03F
6HR MIN TEMP:  81; 6HR MAX TEMP:  87;

BOGALUSA*        N/A     76  72  88 CALM      30.05F
6HR MIN TEMP:  76; 6HR MAX TEMP:  87;

GALLIANO*      NOT AVBL
NEW ROADS*     FAIR      77  75  92 CALM      30.02S
6HR MIN TEMP:  77; 6HR MAX TEMP:  87;

GONZALES*      FAIR      79  79 100 CALM      30.02S
6HR MIN TEMP:  77; 6HR MAX TEMP:  87;

HAMMOND*       FAIR      75  72  88 CALM      30.04F
HOUMA*         FAIR      80  75  85 E5        30.01F
6HR MIN TEMP:  79; 6HR MAX TEMP:  84;

PORT FOURCHON* NOT AVBL

$$

LAZ041-044-053-054-010700-
SOUTHWEST LOUISIANA

CITY           SKY/WX    TMP DP  RH WIND       PRES   REMARKS
LAKE CHARLES   FAIR      79  77  94 SE6       29.98F
6HR MIN TEMP:  78; 6HR MAX TEMP:  81;

LAFAYETTE      FAIR      78  76  93 CALM      30.01S
6HR MIN TEMP:  78; 6HR MAX TEMP:  86;

PATTERSON        N/A     79  77  94 SE5       30.04R
6HR MIN TEMP:  79; 6HR MAX TEMP:  84;

SALT POINT       N/A     86  79  79 SE9       29.99F HX  99
6HR MIN TEMP:  84; 6HR MAX TEMP:  88; 6HR PCP:  0.06;

NEW IBERIA     FAIR      79  76  90 E5        30.01S
6HR MIN TEMP:  79; 6HR MAX TEMP:  85;

CHENAULT AIRPK FAIR      78  77  95 CALM      29.99F
6HR MIN TEMP:  78; 6HR MAX TEMP:  82;


$$

LAZ027-028-010700-
CENTRAL LOUISIANA

CITY           SKY/WX    TMP DP  RH WIND       PRES   REMARKS
FORT POLK      FAIR      73  73 100 SE3       30.00F
6HR MIN TEMP:  73; 6HR MAX TEMP:  77; 6HR PCP:  0.01;

ALEXANDRIA INT FAIR      74  73  97 S6        29.98F
6HR MIN TEMP:  74; 6HR MAX TEMP:  78;

ALEXANDRIA     FAIR      75  72  90 SE3       30.00F
6HR MIN TEMP:  74; 6HR MAX TEMP:  80;


$$

LAZ001-002-010700-
NORTHWEST LOUISIANA

CITY           SKY/WX    TMP DP  RH WIND       PRES   REMARKS
SHREVEPORT     FAIR      75  72  90 S5        29.96F
6HR MIN TEMP:  75; 6HR MAX TEMP:  83;

BARKSDALE AFB  FAIR      73  72  94 S7        29.97S
6HR MIN TEMP:  73; 6HR MAX TEMP:  85;

DTN SHREVEPORT FAIR      76  72  87 S7        29.97S
6HR MIN TEMP:  76; 6HR MAX TEMP:  84;


$$

LAZ014-016-010700-
NORTHEAST LOUISIANA

CITY           SKY/WX    TMP DP  RH WIND       PRES   REMARKS
MONROE         FAIR      73  70  90 S3        29.99F
6HR MIN TEMP:  73; 6HR MAX TEMP:  82;

TALLULAH       FAIR      78  73  84 S8        30.01S
6HR MIN TEMP:  75; 6HR MAX TEMP:  82;


$$




USA.gov is the U.S. government's official web portal to all federal, state and local government web resources and services.